Simultaneous Nadir Overpasses (SNOs) Predictions

Prediction of SNOs near US between AQUA and NPP Satellite Orbit:

Table of predicted SNOs near US for the next 10.0 days since TLE Epoch: 4/23/2016
Index Date (AQUA) Time (AQUA) AQUA Lat,Lon Date (NPP) Time (NPP) NPP Lat,Lon Distance(km) Time Diff (sec)
1 04/24/2016 18:17:53 49.98, -80.36 04/24/2016 18:11:28 49.72, -81.70 100.47 385
2 04/24/2016 19:56:46 49.98,-105.08 04/24/2016 19:52:57 49.67,-107.05 145.69 229
3 04/24/2016 21:31:46 36.09,-125.00 04/24/2016 21:30:25 35.65,-127.35 217.27 81
4 04/27/2016 09:24:49 22.20,-113.92 04/27/2016 09:17:05 22.26,-114.16 25.23 464
5 04/30/2016 06:31:01 46.88, -65.03 04/30/2016 06:31:21 47.21, -66.82 140.97 20
6 04/30/2016 08:09:03 49.91, -88.54 04/30/2016 08:11:56 50.37, -90.84 172.01 173
7 04/30/2016 09:47:56 49.91,-113.26 04/30/2016 09:53:24 50.48,-116.16 216.51 328
8 05/02/2016 19:07:09 49.96, -92.68 05/02/2016 19:02:13 49.66, -94.38 126.05 296




NCC Satellite Simultaneous Nadir Overpasses (SNOs) Prediction Service
